Overview Statistics Trail Chart Weather Telemetry Raw packets
 

This is the latest recevied weather packets stored in our database for station/object 4S6DRJ-13. If no packets are shown the sender has not sent any weather packets the latest 10 day(s).

<< 306 307 308 309 310 311 312 >>
Time Temp. Humidity Pressure Rain* Wind** Luminosity Snow
1788014939 28.33° C 81% 1010.4 hPa 0 mm 0 m/s 0 W/m² -
1788014876 28.33° C 81% 1010.4 hPa 0 mm 0.89 m/s, 226° 0 W/m² -
1788014815 28.33° C 81% 1010.4 hPa 0 mm 0.89 m/s, 256° 0 W/m² -
1788014754 28.33° C 81% 1010.2 hPa 0 mm 0.45 m/s, 278° 0 W/m² -
1788014693 28.33° C 81% 1010.2 hPa 0 mm 1.79 m/s, 260° 0 W/m² -
1788014632 28.33° C 81% 1010.4 hPa 0 mm 0.45 m/s, 266° 0 W/m² -
1788014571 28.33° C 81% 1010.2 hPa 0 mm 0.45 m/s, 185° 0 W/m² -
1788014510 28.33° C 81% 1010.2 hPa 0 mm 1.34 m/s, 220° 0 W/m² -
1788014449 28.33° C 81% 1010.2 hPa 0 mm 0.45 m/s, 101° 0 W/m² -
1788014388 28.33° C 81% 1010.4 hPa 0 mm 0.45 m/s, 190° 0 W/m² -
1788014327 28.33° C 81% 1010 hPa 0 mm 0.89 m/s, 220° 0 W/m² -
1788014266 28.33° C 80% 1010 hPa 0 mm 0 m/s 0 W/m² -
1788014205 28.33° C 80% 1010 hPa 0 mm 0.89 m/s, 236° 0 W/m² -
1788014144 28.33° C 80% 1010.2 hPa 0 mm 1.34 m/s, 240° 0 W/m² -
1788014083 28.33° C 80% 1010.1 hPa 0 mm 1.34 m/s, 291° 0 W/m² -
1788014022 28.33° C 81% 1010 hPa 0 mm 2.24 m/s, 265° 0 W/m² -
1788013961 28.33° C 81% 1010 hPa 0 mm 1.79 m/s, 138° 0 W/m² -
1788013901 28.33° C 81% 1009.9 hPa 0 mm 2.24 m/s, 188° 0 W/m² -
1788013839 28.33° C 81% 1010.1 hPa 0 mm 1.34 m/s, 220° 0 W/m² -
1788013778 28.33° C 81% 1010 hPa 0 mm 1.79 m/s, 163° 0 W/m² -
1788013717 28.33° C 81% 1010 hPa 0 mm 1.79 m/s, 219° 0 W/m² -
1788013656 28.33° C 82% 1009.9 hPa 0 mm 0.45 m/s, 243° 0 W/m² -
1788013596 28.33° C 82% 1010 hPa 0 mm 0.89 m/s, 299° 0 W/m² -
1788013534 28.33° C 82% 1009.9 hPa 0 mm 0.45 m/s, 256° 0 W/m² -
1788013473 28.33° C 82% 1009.9 hPa 0 mm 0.45 m/s, 234° 0 W/m² -

* Rain latest hour (hover to see other rain measurements)
** Current wind speed in m/s (hover to see current wind gust speed)